Location: Bowman Observatory
(41.0326°N, 73.6210°W)
Time: 01:01:56
(UTC-04:00)

Cosmos 2297 - Visible Passes

Search period start: 04 July 2015 00:00
Search period end: 14 July 2015 00:00
Orbit: 836 x 858 km, 71.0° (Epoch: 03 July)

Date Brightness Start Highest point End Pass type
(mag) Time Alt. Az. Time Alt. Az. Time Alt. Az.
05 Jul 6.2 04:41:17 10° SE 04:44:40 17° E 04:48:18 10° ENE visible
06 Jul 6.2 04:28:05 10° SE 04:31:23 16° E 04:34:57 10° ENE visible
07 Jul 6.2 04:14:54 10° SE 04:18:07 16° E 04:21:36 10° ENE visible
08 Jul 6.1 04:01:42 10° SE 04:04:50 16° E 04:08:15 10° ENE visible
09 Jul 6.1 03:48:31 10° SE 03:51:33 15° E 03:54:53 10° ENE visible
10 Jul 6.1 03:35:20 10° SE 03:38:17 15° E 03:41:31 10° ENE visible
11 Jul 6.1 03:22:09 10° SE 03:25:00 15° E 03:28:09 10° ENE visible
12 Jul 6.1 03:08:59 10° SE 03:11:43 14° E 03:14:47 10° ENE visible
12 Jul 3.8 04:49:36 10° SSW 04:55:18 77° WNW 05:01:01 10° NNE visible
13 Jul 6.0 02:55:48 10° SE 02:58:27 14° E 03:01:25 10° ENE visible
13 Jul 3.7 04:36:18 10° SSW 04:42:01 78° WNW 04:47:44 10° NNE visible
